Starlink 1551

operational
NORAD ID: 46075 Int'l Des: 2020-055 Owner: SPXS Country: US Constellation: starlink
LEOCIRCULARSTARLINK_TYPE

About Starlink 1551

Description loading...

Live Position

Loading 3D Globe...

Upcoming Passes

Altitude History

Altitude vs Time

uPlot chart will show altitude changes over time

Two-Line Element Set

1 46075U 20055BA 26061.45563424 .00000650 00000-0 62553-4 0 9998
2 46075 53.0550 129.0948 0001504 90.0268 270.0893 15.06390263308218
Epoch: Mar 2, 2026 • Age: 32 hours

Current Status

Altitude 547.4 km
Velocity 7.59 km/s
Sub-Earth Point 22.72°N, 1.17°E
Launch Date Aug 7, 2020
Age 5.5 years
Type internet

Technical Details

Classification Payload
Mass 260.00 kg
Dry Mass 248.00 kg
Total Mass 260.00 kg
Length 0.20 m
Diameter 2.80 m
Span 9.00 m
Shape Box + pan
Manufacturer SPXS
Bus Type Starlink
Phase Status In Orbit
Owner/State SPXS/US

Large Constellations

Loading constellations...